Location: Bouassaba
(13.2831°N, 5.1202°W)
Time: 17:19:45
(UTC+00:00)

Daily predictions for brighter satellites

Satellite Brightness Start Highest point End
(mag) Time Altitude Azimuth Time Altitude Azimuth Time Altitude Azimuth
Cosmos 2333 4.4 18:26:22 10° NNW 18:32:01 83° WSW 18:37:37 10° SSE
Cosmos 2227 Rocket 3.4 18:27:40 10° SW 18:33:03 46° WNW 18:38:27 10° N
Cosmos 2322 4.2 18:28:00 10° NNW 18:33:36 67° WSW 18:39:12 10° S
Cosmos 2263 Rocket 4.0 18:36:04 10° ESE 18:37:14 11° ESE 18:38:23 10° E
Cosmos-2242 4.1 18:37:11 10° NNE 18:40:37 23° E 18:44:01 10° SE
Cosmos 1461 3.3 18:36:31 10° N 18:40:52 47° ENE 18:45:19 10° SE
Cosmos 1048 Rocket 3.9 18:36:23 10° N 18:41:29 79° ENE 18:46:36 10° SSE
Cosmos 1959 Rocket 4.5 18:36:46 10° S 18:42:57 67° E 18:49:03 10° N
ADEOS Rocket 3.8 18:37:39 10° NNE 18:44:32 49° ESE 18:51:52 10° S
Cosmos 1703 3.3 18:41:01 10° S 18:44:53 59° E 18:48:46 10° NNE
SWIFT 3.0 18:43:03 10° W 18:47:04 44° N 18:50:55 11° ENE
OAO 3 Rocket 3.1 18:44:49 10° SW 18:49:27 89° SSE 18:53:53 11° NE
Cosmos 2219 Rocket 2.2 18:43:59 10° NNW 18:49:39 89° WSW 18:55:16 10° SSE
Cosmos 1953 Rocket 3.8 18:45:45 10° S 18:50:11 78° W 18:54:39 10° N
Cosmos 2366 rocket 4.0 18:48:02 10° S 18:54:10 83° E 19:00:22 10° N
Meteor 2-1 Rocket 4.2 18:49:06 10° N 18:54:38 83° E 19:00:17 10° S
COSMOS 2428 2.9 18:50:46 10° NNW 18:56:30 80° WSW 19:02:11 10° SSE
CZ-4 R/B 1.3 18:53:05 10° SSE 18:56:57 62° ENE 19:00:54 10° N
Ariane Rocket 4.5 18:55:44 10° ESE 18:58:24 14° ENE 19:00:26 12° NE
GPS 2-05 Rocket1 2.3 18:56:39 10° SW 18:59:08 52° SE 19:00:36 21° ENE
Hubble Space Telescope 3.8 18:58:50 10° SW 19:00:23 12° SSW 19:01:57 10° S
Intelsat 5-2 Rocket 2.7 18:59:30 10° WSW 19:02:11 76° SSE 19:06:11 17° ENE
Okean-O 3.8 18:58:17 10° S 19:02:32 47° W 19:06:46 10° NNW
CSL-04 Debris 4.2 19:01:50 10° SSE 19:07:05 55° ENE 19:12:18 10° N
NOSS 3-2 (A) 4.2 19:04:09 10° SSE 19:08:39 26° ESE 19:11:09 19° ENE
GPS 2-18 Rocket1 3.7 19:07:19 10° WNW 19:10:48 37° NNE 19:12:27 24° ENE
Cosmos 494 Rocket 3.9 19:08:51 10° NNW 19:13:58 88° E 19:19:06 10° SSE
Atlas Centaur 2 3.8 19:10:48 10° NW 19:14:19 19° N 19:17:49 12° NNE
CZ-2D R/B 3.2 19:11:48 10° SSE 19:15:31 56° ENE 19:19:15 10° N
Meteor 2-10 Rocket 3.6 19:11:41 10° N 19:16:39 49° E 19:21:28 10° SSE
GPS 2-12 Rocket1 3.3 19:14:10 10° WNW 19:18:53 55° NNE 19:21:13 27° ENE
CENTAUR R/B 4.1 19:18:38 10° ESE 19:18:46 10° ESE 19:18:46 10° ESE
Meteor 2-12 Rocket 4.3 19:17:06 10° S 19:23:09 78° E 19:29:10 10° N
CZ-4C R/B 3.1 19:15:07 10° NNW 19:23:13 68° ENE 19:31:36 10° SSE
NOSS 0 Rocket 3.9 19:19:10 10° NNW 19:25:22 88° WSW 19:31:30 10° SSE
GPS 2-14 Rocket1 3.8 19:22:14 10° SW 19:25:48 32° SSE 19:27:06 26° ESE
Fermi 4.0 19:23:05 10° SW 19:27:06 55° SSE 19:28:23 37° E
USA 234 3.2 19:22:41 10° SE 19:29:13 77° NE 19:35:43 10° NNW
Atlas 2A Centaur Rocket 3.4 19:22:54 10° W 19:31:37 32° NW 19:33:22 22° NNE
CSL-04 Rocket 3.8 19:28:42 10° S 19:34:05 76° WSW 19:39:33 10° NNW
Cosmos 1727 Rocket 3.9 19:32:38 10° N 19:38:42 59° E 19:44:44 10° SSE
H-2A ROCKET BODY 3.7 19:39:31 10° NNW 19:40:15 10° NNW 19:40:37 10° N
Cosmos 2237 Rocket 2.1 19:36:14 10° NNW 19:41:52 90° ENE 19:47:29 10° SSE
Ariane H10+ 4.0 19:39:26 10° SSW 19:42:31 19° SSE 19:44:58 16° SE
USA 238 DEB 3.5 19:38:08 10° SSW 19:44:43 77° ESE 19:48:09 31° NNE
USA 238 3.5 19:38:16 10° SSW 19:44:51 76° ESE 19:48:13 31° NNE
Cosmos 2227 4.2 19:39:32 10° SSW 19:45:18 87° WNW 19:48:54 24° NNE
Cosmos 1455 3.5 19:46:16 10° NNW 19:49:47 39° W 19:53:18 10° SSW
FALCON 9 R/B 4.2 19:28:46 10° WSW 19:50:22 41° NW 19:55:01 21° NNE
Orbus 21S 4.4 19:49:02 10° S 19:49:16 12° S 19:49:16 12° S
Cosmos 2058 4.2 19:47:51 10° S 19:49:54 27° SSE 19:49:54 27° SSE
Delta 7925 Rocket 3.9 19:53:47 10° WNW 20:01:18 85° SSW 20:02:54 53° ESE
Cosmos 1821 Rocket 4.3 19:56:51 10° SSW 20:03:11 67° W 20:09:31 10° N
Cosmos 1371 Rocket 3.9 19:59:49 10° SSW 20:04:58 85° WNW 20:05:29 73° N
Cosmos 1076 Rocket 3.9 20:02:10 10° S 20:05:39 57° SW 20:05:39 57° SW
ASTRO E2 3.9 20:04:41 10° WNW 20:07:20 39° W 20:07:20 39° W
USA 215 3.6 20:15:45 47° SE 20:15:45 47° SE 20:21:29 10° SSW
Cosmos 2263 Rocket 2.8 20:15:19 10° SSW 20:20:40 50° WNW 20:21:52 43° NW
Centaur AC-42 4.1 19:49:17 10° WSW 20:28:13 42° S 20:30:34 36° SE
Aurora 2 Rocket 4.3 20:21:02 10° WNW 20:29:59 53° N 20:29:59 53° N
Ariane Rocket 4.4 20:32:25 10° SSW 20:37:00 35° W 20:40:41 15° NW
NOSS 3-2 (C) 4.1 20:32:10 10° SSW 20:35:53 44° SW 20:35:53 44° SW
ATLAS 3B R/B 3.9 20:39:55 10° SSW 20:43:23 31° S 20:43:23 31° S
CENTAUR R/B 4.4 21:04:39 10° SW 21:06:00 18° SW 21:06:00 18° SW
